Year,Month,Day,Hour,Minute,Value (Times are PST for temperature in C)
2014,09,13,00,00,14.10
2014,09,13,00,01,14.10
2014,09,13,00,02,14.10
2014,09,13,00,03,14.00
2014,09,13,00,04,14.00
2014,09,13,00,05,14.00
2014,09,13,00,06,14.00
2014,09,13,00,07,14.00
2014,09,13,00,08,14.00
2014,09,13,00,09,14.00
2014,09,13,00,10,14.00
2014,09,13,00,11,14.00
2014,09,13,00,12,14.00
2014,09,13,00,13,14.00
2014,09,13,00,16,14.00
2014,09,13,00,17,14.00
2014,09,13,00,18,14.00
2014,09,13,00,19,14.00
2014,09,13,00,20,14.00
2014,09,13,00,21,14.00
2014,09,13,00,22,14.00
2014,09,13,00,23,14.00
2014,09,13,00,24,14.00
2014,09,13,00,25,14.00
2014,09,13,00,26,14.00
2014,09,13,00,27,14.00
2014,09,13,00,28,13.90
2014,09,13,00,29,13.90
2014,09,13,00,30,13.90
2014,09,13,00,31,13.90
2014,09,13,00,32,13.90
2014,09,13,00,33,13.90
2014,09,13,00,34,13.90
2014,09,13,00,35,13.90
2014,09,13,00,36,13.80
2014,09,13,00,37,13.80
2014,09,13,00,38,13.80
2014,09,13,00,39,13.80
2014,09,13,00,40,13.80
2014,09,13,00,41,13.80
2014,09,13,00,42,13.70
2014,09,13,00,43,13.70
2014,09,13,00,44,13.70
2014,09,13,00,45,13.70
2014,09,13,00,46,13.70
2014,09,13,00,47,13.70
2014,09,13,00,48,13.70
2014,09,13,00,49,13.70
2014,09,13,00,50,13.70
2014,09,13,00,51,13.70
2014,09,13,00,52,13.70
2014,09,13,00,53,13.60
2014,09,13,00,54,13.60
2014,09,13,00,55,13.60
2014,09,13,00,56,13.60
2014,09,13,00,57,13.60
2014,09,13,00,58,13.60
2014,09,13,00,59,13.50
2014,09,13,01,00,13.50
2014,09,13,01,01,13.50
2014,09,13,01,02,13.50
2014,09,13,01,03,13.50
2014,09,13,01,04,13.40
2014,09,13,01,05,13.40
2014,09,13,01,06,13.40
2014,09,13,01,07,13.40
2014,09,13,01,08,13.40
2014,09,13,01,09,13.30
2014,09,13,01,10,13.30
2014,09,13,01,11,13.30
2014,09,13,01,12,13.30
2014,09,13,01,13,13.30
2014,09,13,01,14,13.30
2014,09,13,01,15,13.30
2014,09,13,01,16,13.30
2014,09,13,01,17,13.30
2014,09,13,01,18,13.30
2014,09,13,01,19,13.30
2014,09,13,01,20,13.30
2014,09,13,01,21,13.30
2014,09,13,01,22,13.30
2014,09,13,01,23,13.30
2014,09,13,01,24,13.30
2014,09,13,01,25,13.30
2014,09,13,01,26,13.30
2014,09,13,01,27,13.30
2014,09,13,01,28,13.30
2014,09,13,01,29,13.30
2014,09,13,01,30,13.30
2014,09,13,01,31,13.40
2014,09,13,01,32,13.40
2014,09,13,01,33,13.40
2014,09,13,01,34,13.40
2014,09,13,01,35,13.40
2014,09,13,01,36,13.50
2014,09,13,01,37,13.50
2014,09,13,01,38,13.50
2014,09,13,01,39,13.50
2014,09,13,01,40,13.50
2014,09,13,01,41,13.50
2014,09,13,01,42,13.60
2014,09,13,01,43,13.60
2014,09,13,01,44,13.60
2014,09,13,01,45,13.60
2014,09,13,01,46,13.60
2014,09,13,01,47,13.60
2014,09,13,01,48,13.60
2014,09,13,01,49,13.60
2014,09,13,01,50,13.60
2014,09,13,01,51,13.60
2014,09,13,01,52,13.60
2014,09,13,01,53,13.60
2014,09,13,01,54,13.60
2014,09,13,01,55,13.70
2014,09,13,01,56,13.70
2014,09,13,01,57,13.70
2014,09,13,01,58,13.70
2014,09,13,01,59,13.70
2014,09,13,02,00,13.70
2014,09,13,02,01,13.70
2014,09,13,02,02,13.70
2014,09,13,02,03,13.70
2014,09,13,02,04,13.70
2014,09,13,02,05,13.70
2014,09,13,02,06,13.70
2014,09,13,02,07,13.70
2014,09,13,02,08,13.70
2014,09,13,02,09,13.70
2014,09,13,02,10,13.70
2014,09,13,02,11,13.60
2014,09,13,02,12,13.60
2014,09,13,02,13,13.60
2014,09,13,02,14,13.60
2014,09,13,02,15,13.60
2014,09,13,02,16,13.60
2014,09,13,02,17,13.60
2014,09,13,02,18,13.60
2014,09,13,02,19,13.60
2014,09,13,02,20,13.50
2014,09,13,02,21,13.50
2014,09,13,02,22,13.50
2014,09,13,02,23,13.50
2014,09,13,02,24,13.50
2014,09,13,02,25,13.50
2014,09,13,02,26,13.50
2014,09,13,02,27,13.40
2014,09,13,02,28,13.40
2014,09,13,02,29,13.40
2014,09,13,02,30,13.40
2014,09,13,02,31,13.30
2014,09,13,02,32,13.30
2014,09,13,02,33,13.30
2014,09,13,02,34,13.30
2014,09,13,02,35,13.30
2014,09,13,02,36,13.30
2014,09,13,02,37,13.30
2014,09,13,02,38,13.30
2014,09,13,02,39,13.30
2014,09,13,02,40,13.30
2014,09,13,02,41,13.30
2014,09,13,02,42,13.30
2014,09,13,02,43,13.30
2014,09,13,02,44,13.30
2014,09,13,02,45,13.30
2014,09,13,02,46,13.30
2014,09,13,02,47,13.30
2014,09,13,02,48,13.30
2014,09,13,02,49,13.30
2014,09,13,02,50,13.30
2014,09,13,02,51,13.30
2014,09,13,02,52,13.30
2014,09,13,02,53,13.20
2014,09,13,02,54,13.20
2014,09,13,02,55,13.20
2014,09,13,02,56,13.20
2014,09,13,02,57,13.20
2014,09,13,02,58,13.20
2014,09,13,02,59,13.20
2014,09,13,03,00,13.20
2014,09,13,03,01,13.10
2014,09,13,03,02,13.10
2014,09,13,03,03,13.10
2014,09,13,03,04,13.10
2014,09,13,03,05,13.10
2014,09,13,03,06,13.10
2014,09,13,03,07,13.10
2014,09,13,03,08,13.10
2014,09,13,03,09,13.00
2014,09,13,03,10,13.00
2014,09,13,03,11,13.00
2014,09,13,03,12,13.00
2014,09,13,03,13,13.00
2014,09,13,03,14,13.00
2014,09,13,03,15,13.00
2014,09,13,03,16,13.00
2014,09,13,03,17,13.00
2014,09,13,03,18,13.00
2014,09,13,03,19,13.00
2014,09,13,03,20,13.00
2014,09,13,03,21,13.00
2014,09,13,03,22,13.00
2014,09,13,03,23,13.00
2014,09,13,03,24,13.00
2014,09,13,03,25,13.00
2014,09,13,03,26,13.00
2014,09,13,03,27,13.00
2014,09,13,03,28,13.00
2014,09,13,03,29,13.00
2014,09,13,03,30,13.00
2014,09,13,03,31,13.00
2014,09,13,03,32,13.00
2014,09,13,03,33,13.00
2014,09,13,03,34,13.00
2014,09,13,03,35,13.00
2014,09,13,03,36,13.00
2014,09,13,03,37,13.00
2014,09,13,03,38,13.00
2014,09,13,03,39,13.00
2014,09,13,03,40,13.00
2014,09,13,03,41,13.00
2014,09,13,03,42,13.00
2014,09,13,03,43,13.00
2014,09,13,03,44,13.00
2014,09,13,03,45,13.00
2014,09,13,03,46,13.00
2014,09,13,03,47,13.00
2014,09,13,03,48,13.00
2014,09,13,03,49,13.00
2014,09,13,03,50,13.00
2014,09,13,03,51,12.90
2014,09,13,03,52,12.90
2014,09,13,03,53,12.90
2014,09,13,03,54,12.90
2014,09,13,03,55,12.90
2014,09,13,03,56,12.90
2014,09,13,03,57,12.90
2014,09,13,03,58,12.90
2014,09,13,03,59,12.90
2014,09,13,04,00,12.90
2014,09,13,04,01,12.90
2014,09,13,04,02,12.90
2014,09,13,04,03,12.90
2014,09,13,04,04,12.90
2014,09,13,04,05,12.90
2014,09,13,04,06,12.90
2014,09,13,04,07,12.90
2014,09,13,04,08,12.90
2014,09,13,04,09,12.90
2014,09,13,04,10,12.90
2014,09,13,04,11,12.90
2014,09,13,04,12,12.90
2014,09,13,04,13,12.90
2014,09,13,04,14,12.90
2014,09,13,04,15,12.90
2014,09,13,04,16,12.90
2014,09,13,04,17,12.90
2014,09,13,04,18,12.90
2014,09,13,04,19,12.90
2014,09,13,04,20,12.90
2014,09,13,04,21,12.90
2014,09,13,04,22,12.90
2014,09,13,04,23,12.90
2014,09,13,04,24,12.90
2014,09,13,04,25,12.80
2014,09,13,04,26,12.80
2014,09,13,04,27,12.80
2014,09,13,04,28,12.80
2014,09,13,04,29,12.80
2014,09,13,04,30,12.80
2014,09,13,04,31,12.80
2014,09,13,04,32,12.80
2014,09,13,04,33,12.80
2014,09,13,04,34,12.80
2014,09,13,04,35,12.80
2014,09,13,04,36,12.80
2014,09,13,04,37,12.80
2014,09,13,04,38,12.80
2014,09,13,04,39,12.80
2014,09,13,04,40,12.80
2014,09,13,04,41,12.80
2014,09,13,04,42,12.80
2014,09,13,04,43,12.80
2014,09,13,04,44,12.80
2014,09,13,04,45,12.80
2014,09,13,04,46,12.70
2014,09,13,04,47,12.70
2014,09,13,04,48,12.70
2014,09,13,04,49,12.70
2014,09,13,04,50,12.70
2014,09,13,04,51,12.70
2014,09,13,04,52,12.70
2014,09,13,04,53,12.70
2014,09,13,04,54,12.60
2014,09,13,04,55,12.60
2014,09,13,04,56,12.60
2014,09,13,04,57,12.60
2014,09,13,04,58,12.60
2014,09,13,04,59,12.60
2014,09,13,05,00,12.60
2014,09,13,05,01,12.60
2014,09,13,05,02,12.60
2014,09,13,05,03,12.60
2014,09,13,05,04,12.60
2014,09,13,05,05,12.50
2014,09,13,05,06,12.50
2014,09,13,05,07,12.50
2014,09,13,05,08,12.50
2014,09,13,05,09,12.50
2014,09,13,05,10,12.50
2014,09,13,05,11,12.50
2014,09,13,05,12,12.50
2014,09,13,05,13,12.50
2014,09,13,05,14,12.50
2014,09,13,05,15,12.50
2014,09,13,05,16,12.40
2014,09,13,05,17,12.40
2014,09,13,05,18,12.40
2014,09,13,05,19,12.40
2014,09,13,05,20,12.40
2014,09,13,05,21,12.40
2014,09,13,05,22,12.40
2014,09,13,05,23,12.40
2014,09,13,05,24,12.30
2014,09,13,05,25,12.30
2014,09,13,05,26,12.30
2014,09,13,05,27,12.30
2014,09,13,05,28,12.30
2014,09,13,05,29,12.30
2014,09,13,05,30,12.30
2014,09,13,05,31,12.30
2014,09,13,05,32,12.30
2014,09,13,05,33,12.30
2014,09,13,05,34,12.30
2014,09,13,05,35,12.30
2014,09,13,05,36,12.30
2014,09,13,05,37,12.30
2014,09,13,05,38,12.30
2014,09,13,05,39,12.30
2014,09,13,05,40,12.30
2014,09,13,05,41,12.30
2014,09,13,05,42,12.30
2014,09,13,05,43,12.30
2014,09,13,05,44,12.30
2014,09,13,05,45,12.30
2014,09,13,05,46,12.30
2014,09,13,05,47,12.30
2014,09,13,05,48,12.30
2014,09,13,05,49,12.30
2014,09,13,05,50,12.20
2014,09,13,05,51,12.20
2014,09,13,05,52,12.20
2014,09,13,05,53,12.20
2014,09,13,05,54,12.20
2014,09,13,05,55,12.20
2014,09,13,05,56,12.20
2014,09,13,05,57,12.20
2014,09,13,05,58,12.20
2014,09,13,05,59,12.20
2014,09,13,06,00,12.20
2014,09,13,06,01,12.20
2014,09,13,06,02,12.20
2014,09,13,06,03,12.20
2014,09,13,06,04,12.20
2014,09,13,06,05,12.20
2014,09,13,06,06,12.10
2014,09,13,06,07,12.10
2014,09,13,06,08,12.10
2014,09,13,06,09,12.10
2014,09,13,06,10,12.10
2014,09,13,06,11,12.10
2014,09,13,06,12,12.10
2014,09,13,06,13,12.10
2014,09,13,06,14,12.10
2014,09,13,06,15,12.10
2014,09,13,06,16,12.10
2014,09,13,06,17,12.10
2014,09,13,06,18,12.10
2014,09,13,06,19,12.10
2014,09,13,06,20,12.10
2014,09,13,06,21,12.00
2014,09,13,06,22,12.00
2014,09,13,06,23,12.00
2014,09,13,06,24,12.00
2014,09,13,06,25,12.00
2014,09,13,06,26,12.00
2014,09,13,06,27,12.00
2014,09,13,06,28,12.00
2014,09,13,06,29,11.90
2014,09,13,06,30,11.90
2014,09,13,06,31,11.90
2014,09,13,06,32,11.90
2014,09,13,06,33,11.90
2014,09,13,06,34,11.80
2014,09,13,06,35,11.80
2014,09,13,06,36,11.80
2014,09,13,06,37,11.80
2014,09,13,06,38,11.80
2014,09,13,06,39,11.80
2014,09,13,06,40,11.80
2014,09,13,06,41,11.80
2014,09,13,06,42,11.80
2014,09,13,06,43,11.80
2014,09,13,06,44,11.80
2014,09,13,06,45,11.80
2014,09,13,06,46,11.80
2014,09,13,06,47,11.80
2014,09,13,06,48,11.80
2014,09,13,06,49,11.80
2014,09,13,06,50,11.80
2014,09,13,06,51,11.80
2014,09,13,06,52,11.80
2014,09,13,06,53,11.70
2014,09,13,06,54,11.70
2014,09,13,06,55,11.70
2014,09,13,06,56,11.70
2014,09,13,06,57,11.70
2014,09,13,06,58,11.70
2014,09,13,06,59,11.70
2014,09,13,07,00,11.70
2014,09,13,07,01,11.70
2014,09,13,07,02,11.80
2014,09,13,07,03,11.80
2014,09,13,07,04,11.80
2014,09,13,07,05,11.80
2014,09,13,07,06,11.80
2014,09,13,07,07,11.80
2014,09,13,07,08,11.80
2014,09,13,07,09,11.80
2014,09,13,07,10,11.80
2014,09,13,07,11,11.80
2014,09,13,07,12,11.80
2014,09,13,07,13,11.80
2014,09,13,07,14,11.80
2014,09,13,07,15,11.80
2014,09,13,07,16,11.80
2014,09,13,07,17,11.80
2014,09,13,07,18,11.80
2014,09,13,07,19,11.80
2014,09,13,07,20,11.80
2014,09,13,07,21,11.80
2014,09,13,07,22,11.80
2014,09,13,07,23,11.90
2014,09,13,07,24,11.90
2014,09,13,07,25,11.90
2014,09,13,07,26,11.90
2014,09,13,07,27,11.90
2014,09,13,07,28,11.90
2014,09,13,07,29,11.90
2014,09,13,07,30,12.00
2014,09,13,07,31,12.00
2014,09,13,07,32,12.00
2014,09,13,07,33,12.00
2014,09,13,07,34,12.00
2014,09,13,07,35,12.00
2014,09,13,07,36,12.00
2014,09,13,07,37,12.00
2014,09,13,07,38,12.00
2014,09,13,07,39,12.00
2014,09,13,07,40,12.10
2014,09,13,07,41,12.10
2014,09,13,07,42,12.10
2014,09,13,07,43,12.10
2014,09,13,07,44,12.20
2014,09,13,07,45,12.20
2014,09,13,07,46,12.20
2014,09,13,07,47,12.20
2014,09,13,07,48,12.30
2014,09,13,07,49,12.30
2014,09,13,07,50,12.30
2014,09,13,07,51,12.30
2014,09,13,07,52,12.40
2014,09,13,07,53,12.40
2014,09,13,07,54,12.40
2014,09,13,07,55,12.40
2014,09,13,07,56,12.50
2014,09,13,07,57,12.50
2014,09,13,07,58,12.50
2014,09,13,07,59,12.50
2014,09,13,08,00,12.50
2014,09,13,08,01,12.60
2014,09,13,08,02,12.60
2014,09,13,08,03,12.60
2014,09,13,08,04,12.70
2014,09,13,08,05,12.70
2014,09,13,08,06,12.70
2014,09,13,08,07,12.80
2014,09,13,08,08,12.80
2014,09,13,08,09,12.90
2014,09,13,08,10,13.00
2014,09,13,08,11,13.00
2014,09,13,08,12,13.10
2014,09,13,08,13,13.20
2014,09,13,08,14,13.20
2014,09,13,08,15,13.30
2014,09,13,08,16,13.30
2014,09,13,08,17,13.40
2014,09,13,08,18,13.40
2014,09,13,08,19,13.50
2014,09,13,08,20,13.60
2014,09,13,08,21,13.70
2014,09,13,08,22,13.80
2014,09,13,08,23,13.90
2014,09,13,08,24,14.00
2014,09,13,08,25,14.10
2014,09,13,08,26,14.20
2014,09,13,08,27,14.30
2014,09,13,08,28,14.40
2014,09,13,08,29,14.50
2014,09,13,08,30,14.60
2014,09,13,08,31,14.60
2014,09,13,08,32,14.70
2014,09,13,08,33,14.80
2014,09,13,08,34,14.80
2014,09,13,08,35,14.90
2014,09,13,08,36,15.00
2014,09,13,08,37,15.10
2014,09,13,08,38,15.20
2014,09,13,08,39,15.30
2014,09,13,08,40,15.50
2014,09,13,08,41,15.60
2014,09,13,08,42,15.80
2014,09,13,08,43,15.90
2014,09,13,08,44,16.00
2014,09,13,08,45,16.10
2014,09,13,08,46,16.20
2014,09,13,08,47,16.30
2014,09,13,08,48,16.30
2014,09,13,08,49,16.40
2014,09,13,08,50,16.40
2014,09,13,08,51,16.60
2014,09,13,08,52,16.60
2014,09,13,08,53,16.70
2014,09,13,08,54,16.70
2014,09,13,08,55,16.80
2014,09,13,08,56,17.00
2014,09,13,08,57,17.10
2014,09,13,08,58,17.20
2014,09,13,08,59,17.30
2014,09,13,09,00,17.30
2014,09,13,09,01,17.40
2014,09,13,09,02,17.40
2014,09,13,09,03,17.50
2014,09,13,09,04,17.60
2014,09,13,09,05,17.60
2014,09,13,09,06,17.60
2014,09,13,09,07,17.60
2014,09,13,09,08,17.60
2014,09,13,09,09,17.60
2014,09,13,09,10,17.60
2014,09,13,09,11,17.70
2014,09,13,09,12,17.70
2014,09,13,09,13,17.80
2014,09,13,09,14,17.90
2014,09,13,09,15,17.90
2014,09,13,09,16,18.10
2014,09,13,09,17,18.20
2014,09,13,09,18,18.20
2014,09,13,09,19,18.20
2014,09,13,09,20,18.30
2014,09,13,09,21,18.40
2014,09,13,09,22,18.40
2014,09,13,09,23,18.40
2014,09,13,09,24,18.40
2014,09,13,09,25,18.40
2014,09,13,09,26,18.50
2014,09,13,09,27,18.60
2014,09,13,09,28,18.70
2014,09,13,09,29,18.80
2014,09,13,09,30,18.90
2014,09,13,09,31,19.00
2014,09,13,09,32,19.10
2014,09,13,09,33,19.30
2014,09,13,09,34,19.40
2014,09,13,09,35,19.50
2014,09,13,09,36,19.60
2014,09,13,09,37,19.60
2014,09,13,09,38,19.60
2014,09,13,09,39,19.60
2014,09,13,09,40,19.60
2014,09,13,09,41,19.60
2014,09,13,09,42,19.60
2014,09,13,09,43,19.60
2014,09,13,09,44,19.70
2014,09,13,09,45,19.70
2014,09,13,09,46,19.80
2014,09,13,09,47,19.80
2014,09,13,09,48,19.80
2014,09,13,09,49,19.90
2014,09,13,09,50,19.90
2014,09,13,09,51,19.90
2014,09,13,09,52,19.90
2014,09,13,09,53,20.10
2014,09,13,09,54,20.10
2014,09,13,09,55,20.10
2014,09,13,09,56,20.20
2014,09,13,09,57,20.40
2014,09,13,09,58,20.50
2014,09,13,09,59,20.60
2014,09,13,10,00,20.60
2014,09,13,10,01,20.70
2014,09,13,10,02,20.70
2014,09,13,10,03,20.60
2014,09,13,10,04,20.50
2014,09,13,10,05,20.50
2014,09,13,10,06,20.50
2014,09,13,10,07,20.50
2014,09,13,10,08,20.50
2014,09,13,10,09,20.60
2014,09,13,10,10,20.70
2014,09,13,10,11,20.80
2014,09,13,10,12,20.90
2014,09,13,10,13,21.00
2014,09,13,10,14,21.00
2014,09,13,10,15,21.00
2014,09,13,10,16,21.10
2014,09,13,10,17,21.20
2014,09,13,10,18,21.30
2014,09,13,10,19,21.30
2014,09,13,10,20,21.30
2014,09,13,10,21,21.20
2014,09,13,10,22,21.10
2014,09,13,10,23,21.00
2014,09,13,10,24,20.90
2014,09,13,10,25,20.90
2014,09,13,10,26,20.90
2014,09,13,10,27,20.90
2014,09,13,10,28,20.90
2014,09,13,10,29,21.00
2014,09,13,10,30,21.00
2014,09,13,10,31,21.00
2014,09,13,10,32,21.00
2014,09,13,10,33,21.00
2014,09,13,10,34,21.00
2014,09,13,10,35,21.10
2014,09,13,10,36,21.20
2014,09,13,10,37,21.30
2014,09,13,10,38,21.30
2014,09,13,10,39,21.30
2014,09,13,10,40,21.30
2014,09,13,10,41,21.30
2014,09,13,10,42,21.30
2014,09,13,10,43,21.30
2014,09,13,10,44,21.30
2014,09,13,10,45,21.30
2014,09,13,10,46,21.30
2014,09,13,10,47,21.30
2014,09,13,10,48,21.30
2014,09,13,10,49,21.30
2014,09,13,10,50,21.50
2014,09,13,10,51,21.60
2014,09,13,10,52,21.70
2014,09,13,10,53,21.80
2014,09,13,10,54,21.80
2014,09,13,10,55,21.90
2014,09,13,10,56,22.00
2014,09,13,10,57,22.00
2014,09,13,10,58,22.00
2014,09,13,10,59,22.00
2014,09,13,11,00,21.90
2014,09,13,11,01,21.80
2014,09,13,11,02,21.70
2014,09,13,11,03,21.80
2014,09,13,11,04,22.00
2014,09,13,11,05,22.10
2014,09,13,11,06,22.30
2014,09,13,11,07,22.60
2014,09,13,11,08,22.70
2014,09,13,11,09,22.80
2014,09,13,11,10,22.90
2014,09,13,11,11,22.80
2014,09,13,11,12,22.80
2014,09,13,11,13,22.70
2014,09,13,11,14,22.50
2014,09,13,11,15,22.30
2014,09,13,11,16,22.20
2014,09,13,11,17,22.10
2014,09,13,11,18,22.10
2014,09,13,11,19,22.20
2014,09,13,11,20,22.30
2014,09,13,11,21,22.30
2014,09,13,11,22,22.30
2014,09,13,11,23,22.30
2014,09,13,11,24,22.40
2014,09,13,11,25,22.50
2014,09,13,11,26,22.50
2014,09,13,11,27,22.50
2014,09,13,11,28,22.50
2014,09,13,11,29,22.60
2014,09,13,11,30,22.60
2014,09,13,11,31,22.60
2014,09,13,11,32,22.50
2014,09,13,11,33,22.50
2014,09,13,11,34,22.40
2014,09,13,11,35,22.40
2014,09,13,11,36,22.50
2014,09,13,11,37,22.60
2014,09,13,11,38,22.70
2014,09,13,11,39,22.70
2014,09,13,11,40,22.70
2014,09,13,11,41,22.60
2014,09,13,11,42,22.50
2014,09,13,11,43,22.50
2014,09,13,11,44,22.60
2014,09,13,11,45,22.70
2014,09,13,11,46,22.70
2014,09,13,11,47,22.60
2014,09,13,11,48,22.60
2014,09,13,11,49,22.60
2014,09,13,11,50,22.50
2014,09,13,11,51,22.50
2014,09,13,11,52,22.50
2014,09,13,11,53,22.60
2014,09,13,11,54,22.70
2014,09,13,11,55,22.80
2014,09,13,11,56,22.90
2014,09,13,11,57,22.90
2014,09,13,11,58,23.00
2014,09,13,11,59,23.10
2014,09,13,12,00,23.10
2014,09,13,12,01,23.10
2014,09,13,12,02,23.10
2014,09,13,12,03,23.00
2014,09,13,12,04,22.90
2014,09,13,12,05,22.80
2014,09,13,12,06,22.60
2014,09,13,12,07,22.50
2014,09,13,12,08,22.40
2014,09,13,12,09,22.40
2014,09,13,12,10,22.50
2014,09,13,12,11,22.50
2014,09,13,12,12,22.60
2014,09,13,12,13,22.50
2014,09,13,12,14,22.50
2014,09,13,12,15,22.40
2014,09,13,12,16,22.40
2014,09,13,12,17,22.40
2014,09,13,12,18,22.50
2014,09,13,12,19,22.50
2014,09,13,12,20,22.60
2014,09,13,12,21,22.60
2014,09,13,12,22,22.70
2014,09,13,12,23,22.80
2014,09,13,12,24,22.90
2014,09,13,12,25,22.90
2014,09,13,12,26,22.90
2014,09,13,12,27,22.90
2014,09,13,12,28,22.80
2014,09,13,12,29,23.00
2014,09,13,12,30,23.20
2014,09,13,12,31,23.40
2014,09,13,12,32,23.60
2014,09,13,12,33,23.70
2014,09,13,12,34,23.80
2014,09,13,12,35,23.80
2014,09,13,12,36,23.70
2014,09,13,12,37,23.60
2014,09,13,12,38,23.40
2014,09,13,12,39,23.50
2014,09,13,12,40,23.60
2014,09,13,12,41,23.70
2014,09,13,12,42,23.80
2014,09,13,12,43,23.90
2014,09,13,12,44,23.90
2014,09,13,12,45,23.90
2014,09,13,12,46,23.80
2014,09,13,12,47,23.60
2014,09,13,12,48,23.50
2014,09,13,12,49,23.30
2014,09,13,12,50,23.40
2014,09,13,12,51,23.40
2014,09,13,12,52,23.40
2014,09,13,12,53,23.30
2014,09,13,12,54,23.30
2014,09,13,12,55,23.10
2014,09,13,12,56,22.90
2014,09,13,12,57,22.80
2014,09,13,12,58,22.60
2014,09,13,12,59,22.50
2014,09,13,13,00,22.30
2014,09,13,13,01,22.20
2014,09,13,13,02,22.10
2014,09,13,13,03,22.10
2014,09,13,13,04,22.00
2014,09,13,13,05,21.90
2014,09,13,13,06,21.90
2014,09,13,13,07,21.80
2014,09,13,13,08,21.90
2014,09,13,13,09,22.00
2014,09,13,13,10,22.10
2014,09,13,13,11,22.20
2014,09,13,13,12,22.20
2014,09,13,13,13,22.30
2014,09,13,13,14,22.40
2014,09,13,13,15,22.50
2014,09,13,13,16,22.60
2014,09,13,13,17,22.60
2014,09,13,13,18,22.70
2014,09,13,13,19,22.90
2014,09,13,13,20,22.90
2014,09,13,13,21,23.00
2014,09,13,13,22,23.10
2014,09,13,13,23,23.20
2014,09,13,13,24,23.30
2014,09,13,13,25,23.20
2014,09,13,13,26,23.10
2014,09,13,13,27,23.10
2014,09,13,13,28,23.10
2014,09,13,13,29,23.10
2014,09,13,13,30,23.20
2014,09,13,13,31,23.30
2014,09,13,13,32,23.30
2014,09,13,13,33,23.40
2014,09,13,13,34,23.50
2014,09,13,13,35,23.60
2014,09,13,13,36,23.60
2014,09,13,13,37,23.60
2014,09,13,13,38,23.50
2014,09,13,13,39,23.60
2014,09,13,13,40,23.60
2014,09,13,13,41,23.70
2014,09,13,13,42,23.80
2014,09,13,13,43,24.00
2014,09,13,13,44,24.20
2014,09,13,13,45,24.30
2014,09,13,13,46,24.40
2014,09,13,13,47,24.40
2014,09,13,13,48,24.40
2014,09,13,13,49,24.50
2014,09,13,13,50,24.50
2014,09,13,13,51,24.70
2014,09,13,13,52,24.80
2014,09,13,13,53,24.80
2014,09,13,13,54,24.90
2014,09,13,13,55,24.90
2014,09,13,13,56,24.90
2014,09,13,13,57,25.00
2014,09,13,13,58,25.00
2014,09,13,13,59,25.00
2014,09,13,14,00,24.90
2014,09,13,14,01,24.80
2014,09,13,14,02,24.70
2014,09,13,14,03,24.70
2014,09,13,14,04,24.70
2014,09,13,14,05,24.70
2014,09,13,14,06,24.60
2014,09,13,14,07,24.60
2014,09,13,14,08,24.60
2014,09,13,14,09,24.50
2014,09,13,14,10,24.40
2014,09,13,14,11,24.30
2014,09,13,14,12,24.20
2014,09,13,14,13,24.10
2014,09,13,14,14,24.00
2014,09,13,14,15,23.90
2014,09,13,14,16,23.80
2014,09,13,14,17,23.70
2014,09,13,14,18,23.70
2014,09,13,14,19,23.70
2014,09,13,14,20,23.70
2014,09,13,14,21,23.70
2014,09,13,14,22,23.70
2014,09,13,14,23,23.80
2014,09,13,14,24,23.90
2014,09,13,14,25,23.90
2014,09,13,14,26,24.00
2014,09,13,14,27,24.00
2014,09,13,14,28,24.10
2014,09,13,14,29,24.10
2014,09,13,14,30,24.00
2014,09,13,14,31,23.70
2014,09,13,14,32,23.40
2014,09,13,14,33,23.20
2014,09,13,14,34,23.00
2014,09,13,14,35,22.90
2014,09,13,14,36,22.70
2014,09,13,14,37,22.70
2014,09,13,14,38,22.70
2014,09,13,14,39,22.80
2014,09,13,14,40,22.90
2014,09,13,14,41,22.90
2014,09,13,14,42,22.90
2014,09,13,14,43,23.00
2014,09,13,14,44,23.10
2014,09,13,14,45,23.20
2014,09,13,14,46,23.30
2014,09,13,14,47,23.40
2014,09,13,14,48,23.60
2014,09,13,14,49,23.70
2014,09,13,14,50,23.60
2014,09,13,14,51,23.40
2014,09,13,14,52,23.30
2014,09,13,14,53,23.30
2014,09,13,14,54,23.20
2014,09,13,14,55,23.20
2014,09,13,14,56,23.10
2014,09,13,14,57,23.10
2014,09,13,14,58,23.20
2014,09,13,14,59,23.20
2014,09,13,15,00,23.30
2014,09,13,15,01,23.30
2014,09,13,15,02,23.30
2014,09,13,15,03,23.30
2014,09,13,15,04,23.20
2014,09,13,15,05,23.10
2014,09,13,15,06,23.10
2014,09,13,15,07,23.10
2014,09,13,15,08,23.00
2014,09,13,15,09,22.90
2014,09,13,15,10,22.90
2014,09,13,15,11,23.00
2014,09,13,15,12,23.10
2014,09,13,15,13,23.20
2014,09,13,15,14,23.30
2014,09,13,15,15,23.30
2014,09,13,15,16,23.30
2014,09,13,15,17,23.30
2014,09,13,15,18,23.20
2014,09,13,15,19,23.10
2014,09,13,15,20,23.10
2014,09,13,15,21,23.10
2014,09,13,15,22,23.20
2014,09,13,15,23,23.30
2014,09,13,15,24,23.50
2014,09,13,15,25,23.70
2014,09,13,15,26,23.80
2014,09,13,15,27,24.00
2014,09,13,15,28,24.10
2014,09,13,15,29,24.30
2014,09,13,15,30,24.50
2014,09,13,15,31,24.50
2014,09,13,15,32,24.50
2014,09,13,15,33,24.50
2014,09,13,15,34,24.50
2014,09,13,15,35,24.50
2014,09,13,15,36,24.50
2014,09,13,15,37,24.50
2014,09,13,15,38,24.50
2014,09,13,15,39,24.40
2014,09,13,15,40,24.30
2014,09,13,15,41,24.20
2014,09,13,15,42,24.20
2014,09,13,15,43,24.20
2014,09,13,15,44,24.20
2014,09,13,15,45,24.10
2014,09,13,15,46,24.10
2014,09,13,15,47,24.10
2014,09,13,15,48,24.10
2014,09,13,15,49,24.20
2014,09,13,15,50,24.20
2014,09,13,15,51,24.20
2014,09,13,15,52,24.20
2014,09,13,15,53,24.30
2014,09,13,15,54,24.30
2014,09,13,15,55,24.30
2014,09,13,15,56,24.30
2014,09,13,15,57,24.30
2014,09,13,15,58,24.30
2014,09,13,15,59,24.30
2014,09,13,16,00,24.30
2014,09,13,16,01,24.40
2014,09,13,16,02,24.40
2014,09,13,16,03,24.50
2014,09,13,16,04,24.50
2014,09,13,16,05,24.60
2014,09,13,16,06,24.70
2014,09,13,16,07,24.70
2014,09,13,16,08,24.70
2014,09,13,16,09,24.80
2014,09,13,16,10,24.90
2014,09,13,16,11,24.90
2014,09,13,16,12,25.00
2014,09,13,16,13,25.00
2014,09,13,16,14,25.10
2014,09,13,16,15,25.10
2014,09,13,16,16,25.10
2014,09,13,16,17,25.10
2014,09,13,16,18,25.10
2014,09,13,16,19,25.10
2014,09,13,16,20,25.20
2014,09,13,16,21,25.20
2014,09,13,16,22,25.20
2014,09,13,16,23,25.30
2014,09,13,16,24,25.40
2014,09,13,16,25,25.40
2014,09,13,16,26,25.50
2014,09,13,16,27,25.60
2014,09,13,16,28,25.60
2014,09,13,16,29,25.60
2014,09,13,16,30,25.60
2014,09,13,16,31,25.50
2014,09,13,16,32,25.40
2014,09,13,16,33,25.30
2014,09,13,16,34,25.30
2014,09,13,16,35,25.20
2014,09,13,16,36,25.10
2014,09,13,16,37,25.00
2014,09,13,16,38,25.00
2014,09,13,16,39,24.90
2014,09,13,16,40,24.90
2014,09,13,16,41,24.90
2014,09,13,16,42,24.90
2014,09,13,16,43,24.90
2014,09,13,16,44,24.90
2014,09,13,16,45,24.90
2014,09,13,16,46,24.90
2014,09,13,16,47,24.90
2014,09,13,16,48,24.80
2014,09,13,16,49,24.80
2014,09,13,16,50,24.80
2014,09,13,16,51,24.90
2014,09,13,16,52,24.90
2014,09,13,16,53,25.00
2014,09,13,16,54,25.10
2014,09,13,16,55,25.20
2014,09,13,16,56,25.20
2014,09,13,16,57,25.20
2014,09,13,16,58,25.20
2014,09,13,16,59,25.20
2014,09,13,17,00,25.30
2014,09,13,17,01,25.30
2014,09,13,17,02,25.30
2014,09,13,17,03,25.30
2014,09,13,17,04,25.30
2014,09,13,17,05,25.30
2014,09,13,17,06,25.30
2014,09,13,17,07,25.20
2014,09,13,17,08,25.20
2014,09,13,17,09,25.10
2014,09,13,17,10,25.00
2014,09,13,17,11,24.90
2014,09,13,17,12,24.80
2014,09,13,17,13,24.70
2014,09,13,17,14,24.70
2014,09,13,17,15,24.70
2014,09,13,17,16,24.70
2014,09,13,17,17,24.70
2014,09,13,17,18,24.80
2014,09,13,17,19,24.80
2014,09,13,17,20,24.90
2014,09,13,17,21,25.00